Location: ???? ???
(30.5005°N, 60.5936°E)
Time: 01:09:03
(UTC+00:00)

Daily predictions for brighter satellites

Satellite Brightness Start Highest point End
(mag) Time Altitude Azimuth Time Altitude Azimuth Time Altitude Azimuth
GPS 2-17 Rocket1 4.4 00:01:33 14° SW 00:03:56 20° S 00:07:10 10° SE
H-2A R/B 2.9 00:00:30 10° SSW 00:04:23 31° W 00:08:20 10° NW
SAR-Lupe-1 4.1 00:01:08 10° SSE 00:04:40 79° ENE 00:08:13 10° N
Cosmos 1633 2.8 00:01:32 12° SSW 00:04:45 48° W 00:08:15 10° N
CZ-4B R/B 1.8 00:03:46 10° SSE 00:06:46 58° ENE 00:09:49 10° N
Cosmos 1151 Rocket 3.8 00:04:08 10° NNW 00:08:03 32° W 00:11:56 10° SSW
Lacrosse 5 rocket 2.8 00:06:21 11° W 00:09:28 24° NW 00:12:41 10° N
deb Chang Zheng 4 3.9 00:06:21 10° N 00:10:26 47° WNW 00:14:30 10° SSW
Cosmos 2237 Rocket 2.2 00:11:59 10° SSW 00:17:38 79° WNW 00:23:20 10° NNE
Cosmos 1515 Rocket 3.9 00:15:18 10° NNW 00:19:26 45° W 00:23:32 10° SSW
STARLINK-1050 4.3 00:15:56 10° SSW 00:19:55 49° SE 00:23:55 10° NE
Iridium 4 Rocket 3.6 00:15:59 10° SSW 00:20:45 59° W 00:26:01 10° N
Sich 1 3.5 00:17:55 10° S 00:22:10 63° E 00:26:25 10° NNE
STARLINK-52 3.1 00:20:29 10° NW 00:23:34 47° SW 00:26:38 10° SSE
STARLINK-1055 4.1 00:20:50 10° SSW 00:24:52 56° SE 00:28:56 10° NE
PAYLOAD A 4.4 00:23:37 10° N 00:28:05 41° WNW 00:32:41 10° SW
COSMOS 2428 4.1 00:25:31 10° WSW 00:29:46 22° WNW 00:34:03 10° NNW
STARLINK-1022 4.0 00:25:45 10° SSW 00:29:49 63° SE 00:33:55 10° NE
Cosmos 1346 Rocket 3.6 00:26:18 10° SW 00:29:55 33° W 00:33:33 10° NNW
Cosmos 1844 Rocket 3.6 00:25:49 10° NW 00:30:23 26° WSW 00:34:56 10° SSW
